Location: Unspecified
(0.0000°N, 0.0000°E)
Time: 16:52:17
(UTC+00:00)

deb r/b Ablestar - Pass Details

Date: 15 March 2026
Orbit: 726 x 907 km, 66.9° (Epoch: 18 April)

Event Time Altitude Azimuth Distance (km) Brightness Sun altitude
Rises 19:50:45 0° 206° (SSW) 3,404 ? -25.5°
Reaches altitude 10° 19:53:11 10° 209° (SSW) 2,492 ? -26.1°
Maximum altitude 19:58:54 63° 289° (WNW) 982 ? -27.5°
Enters shadow 20:02:25 25° 3° (N) 1,724 ? -28.4°
